View from above orbital plane
|
View from above satellite
|
Ground track
|
The orbit data is extracted from the following two-line orbital elements,
1 20465U 90010A 21017.19246869 .00000220 00000-0 16298-4 0 9997
2 20465 82.4882 67.6681 0015033 194.9052 165.1730 14.98123326681431
Epoch (UTC): | 17 January 2021 04:37:09 |
Eccentricity: | 0.0015033 |
inclination: | 82.4882° |
perigee height: | 562 km |
apogee height: | 583 km |
right ascension of ascending node: | 67.6681° |
argument of perigee: | 194.9052° |
revolutions per day: | 14.98123326 |
mean anomaly at epoch: | 165.1730° |
orbit number at epoch: | 68143 |
The dashed part of the orbit path shows where the satellite is in the earth's shadow,
|
|